Change the Weather History Date:

Tuesday, September 4, 2012

  Actual Average Record
Temperature  
Mean Temperature 72 °F -  
Max Temperature 78 °F 74 °F 85 °F (1977)
Min Temperature 66 °F 59 °F 45 °F (1949)
Cooling Degree Days 6    
Growing Degree Days 22 (Base 50)    
Moisture  
Dew Point 68 °F    
Average Humidity 83    
Maximum Humidity 90    
Minimum Humidity 69    
Precipitation  
Precipitation 0.08 in - - ()
Sea Level Pressure  
Sea Level Pressure 30.02 in    
Wind  
Wind Speed 9 mph (SSE)    
Max Wind Speed 15 mph    
Max Gust Speed -    
Visibility 10 miles    
Events Rain    
Averages and records for this station are not official NWS values.
T = Trace of Precipitation, MM = Missing Value Source: NWS Daily Summary

Daily Weather History Graph

Daily Weather History Graph

Search for Another Location

Airport or City:

Trip Planner

Search our weather history database for the weather conditions in past years. The results will help you decide how hot, cold, wet, or windy it might be!

Date:

Astronomy

Sep. 04, 2012 Rise Set
Actual Time 6:12 AM EDT 7:09 PM EDT
Civil Twilight 5:43 AM EDT 7:37 PM EDT
Nautical Twilight 5:10 AM EDT 8:11 PM EDT
Astronomical Twilight 4:35 AM EDT 8:46 PM EDT
Moon 8:57 PM EDT (9/4) 10:19 AM EDT (9/4)
Length of Visible Light 13h 53m
Length of Day
12h 57m
Waning Gibbous, 84% of the Moon is Illuminated
Sep 4
Waning Gibbous
Sep 8
Last Quarter
Sep 15
New
Sep 22
First Quarter
Sep 29
Full

Hourly Weather History & Observations

Time (EDT) Temp. Dew Point Humidity Pressure Visibility Wind Dir Wind Speed Gust Speed Precip Events Conditions
12:53 AM 66.9 °F 63.0 °F 87% 30.17 in 10.0 mi ESE 4.6 mph - N/A   Overcast
1:53 AM 68.0 °F 64.0 °F 87% 30.14 in 10.0 mi SE 4.6 mph - N/A   Overcast
2:53 AM 69.1 °F 64.0 °F 84% 30.13 in 10.0 mi SE 5.8 mph - N/A   Overcast
3:53 AM 69.1 °F 64.0 °F 84% 30.12 in 10.0 mi SE 6.9 mph - N/A   Overcast
4:53 AM 70.0 °F 64.0 °F 81% 30.12 in 10.0 mi SE 6.9 mph - N/A   Overcast
5:53 AM 70.0 °F 64.9 °F 84% 30.12 in 10.0 mi SE 8.1 mph - N/A   Overcast
6:53 AM 70.0 °F 66.0 °F 87% 30.13 in 10.0 mi SE 9.2 mph - 0.00 in Rain Light Rain
7:53 AM 71.1 °F 66.0 °F 84% 30.12 in 10.0 mi SE 6.9 mph - 0.01 in   Overcast
8:53 AM 71.1 °F 66.9 °F 87% 30.11 in 10.0 mi ESE 8.1 mph - 0.00 in   Overcast
9:53 AM 73.9 °F 66.0 °F 76% 30.10 in 10.0 mi SE 11.5 mph - N/A   Overcast
10:53 AM 75.9 °F 64.9 °F 69% 30.09 in 10.0 mi SE 13.8 mph - N/A   Overcast
11:53 AM 75.9 °F 66.0 °F 71% 30.08 in 10.0 mi SSE 15.0 mph - N/A   Mostly Cloudy
12:53 PM 77.0 °F 66.9 °F 71% 30.06 in 10.0 mi SE 10.4 mph - N/A   Overcast
1:50 PM 77.0 °F 66.2 °F 69% 30.04 in 10.0 mi SE 11.5 mph - N/A   Mostly Cloudy
1:53 PM 77.0 °F 66.9 °F 71% 30.04 in 10.0 mi SSE 12.7 mph - N/A   Overcast
2:53 PM 75.0 °F 66.9 °F 76% 30.02 in 10.0 mi SE 9.2 mph - N/A   Overcast
3:14 PM 75.2 °F 66.2 °F 73% 30.02 in 10.0 mi SE 12.7 mph - N/A   Overcast
3:53 PM 75.0 °F 68.0 °F 79% 30.00 in 10.0 mi SSE 11.5 mph - N/A   Overcast
4:53 PM 75.0 °F 69.1 °F 82% 29.99 in 10.0 mi South 11.5 mph - N/A   Overcast
5:37 PM 75.2 °F 69.8 °F 83% 29.99 in 10.0 mi South 12.7 mph - N/A   Overcast
6:05 PM 75.2 °F 69.8 °F 83% 29.99 in 10.0 mi South 10.4 mph - N/A   Overcast
6:53 PM 75.0 °F 70.0 °F 84% 29.97 in 10.0 mi South 10.4 mph - N/A   Overcast
7:37 PM 75.2 °F 71.6 °F 89% 29.97 in 8.0 mi South 9.2 mph - 0.02 in Rain Light Rain
7:53 PM 75.0 °F 71.1 °F 87% 29.96 in 10.0 mi South 12.7 mph - 0.02 in Rain Light Rain
8:16 PM 75.2 °F 71.6 °F 89% 29.97 in 7.0 mi South 13.8 mph - 0.05 in Rain Heavy Rain
8:45 PM 75.2 °F 71.6 °F 89% 29.96 in 10.0 mi South 11.5 mph - 0.05 in   Overcast
8:53 PM 75.0 °F 72.0 °F 90% 29.96 in 10.0 mi South 10.4 mph - 0.05 in   Mostly Cloudy
9:30 PM 75.2 °F 71.6 °F 89% 29.96 in 10.0 mi South 10.4 mph - N/A   Overcast
9:42 PM 75.2 °F 71.6 °F 89% 29.95 in 10.0 mi South 10.4 mph - N/A   Overcast
9:53 PM 75.0 °F 71.1 °F 87% 29.96 in 10.0 mi South 11.5 mph - N/A   Overcast
10:07 PM 75.2 °F 71.6 °F 89% 29.95 in 10.0 mi South 11.5 mph - N/A   Overcast
10:34 PM 75.2 °F 71.6 °F 89% 29.95 in 10.0 mi South 11.5 mph - N/A   Mostly Cloudy
10:50 PM 75.2 °F 71.6 °F 89% 29.95 in 10.0 mi South 10.4 mph - N/A   Overcast
10:53 PM 75.0 °F 71.1 °F 87% 29.94 in 10.0 mi South 10.4 mph - N/A   Overcast
11:39 PM 75.2 °F 71.6 °F 89% 29.93 in 10.0 mi South 11.5 mph - N/A   Overcast
11:53 PM 75.0 °F 71.1 °F 87% 29.92 in 9.0 mi South 11.5 mph - N/A   Overcast